SHT3T EGCC-EGLL

Flight info

Callsign SHT3T
Flight time 0h 38m
Altitude 17000
Route LISTO2S LISTO L612 HON HON2H
Aircraft A319/M-SDE3FGIJ1KRWXY/LB1

Departure

Time 2026-05-06 06:18
Airport Manchester Airport (EGCC)

Arrival

Time 2026-05-06 06:56
Airport London Heathrow Airport (EGLL)
Time Latitude Longitude Altitude Speed Heading
2026-05-06 05:53 53.36916 -2.28738 255 ft 0 kts 135°
2026-05-06 05:54 53.36919 -2.28741 255 ft 0 kts 135°
2026-05-06 06:03 53.36927 -2.28756 255 ft 4 kts 135°
2026-05-06 06:03 53.36943 -2.28783 255 ft 4 kts 146°
2026-05-06 06:03 53.36960 -2.28784 255 ft 4 kts 220°
2026-05-06 06:03 53.36965 -2.28777 255 ft 4 kts 225°
2026-05-06 06:04 53.36952 -2.28798 255 ft 0 kts 225°
2026-05-06 06:06 53.36951 -2.28799 255 ft 1 kts 225°
2026-05-06 06:06 53.36942 -2.28815 255 ft 3 kts 225°
2026-05-06 06:06 53.36920 -2.28853 255 ft 5 kts 227°
2026-05-06 06:07 53.36894 -2.28897 255 ft 5 kts 225°
2026-05-06 06:07 53.36860 -2.28954 255 ft 9 kts 224°
2026-05-06 06:07 53.36809 -2.29019 255 ft 9 kts 204°
2026-05-06 06:07 53.36751 -2.29040 255 ft 8 kts 167°
2026-05-06 06:08 53.36712 -2.28984 255 ft 7 kts 134°
2026-05-06 06:08 53.36676 -2.28923 255 ft 8 kts 135°
2026-05-06 06:08 53.36621 -2.28877 255 ft 9 kts 149°
2026-05-06 06:08 53.36587 -2.28799 255 ft 8 kts 115°
2026-05-06 06:09 53.36556 -2.28717 255 ft 9 kts 132°
2026-05-06 06:09 53.36505 -2.28632 255 ft 12 kts 136°
2026-05-06 06:09 53.36440 -2.28523 255 ft 14 kts 138°
2026-05-06 06:09 53.36382 -2.28478 255 ft 14 kts 169°
2026-05-06 06:10 53.36304 -2.28403 255 ft 13 kts 135°
2026-05-06 06:10 53.36237 -2.28295 255 ft 13 kts 133°
2026-05-06 06:10 53.36171 -2.28179 255 ft 14 kts 134°
2026-05-06 06:10 53.36091 -2.28045 255 ft 19 kts 136°
2026-05-06 06:11 53.36003 -2.27918 255 ft 14 kts 139°
2026-05-06 06:11 53.35937 -2.27848 255 ft 8 kts 163°
2026-05-06 06:11 53.35883 -2.27851 255 ft 10 kts 187°
2026-05-06 06:11 53.35817 -2.27862 251 ft 5 kts 185°
2026-05-06 06:12 53.35769 -2.27871 248 ft 8 kts 186°
2026-05-06 06:12 53.35686 -2.27884 244 ft 16 kts 187°
2026-05-06 06:12 53.35609 -2.27932 240 ft 7 kts 228°
2026-05-06 06:12 53.35581 -2.27992 238 ft 8 kts 231°
2026-05-06 06:13 53.35535 -2.28078 234 ft 8 kts 220°
2026-05-06 06:13 53.35483 -2.28132 234 ft 9 kts 205°
2026-05-06 06:13 53.35417 -2.28160 238 ft 10 kts 188°
2026-05-06 06:13 53.35332 -2.28191 234 ft 15 kts 200°
2026-05-06 06:14 53.35229 -2.28302 232 ft 19 kts 226°
2026-05-06 06:14 53.35141 -2.28487 227 ft 23 kts 231°
2026-05-06 06:14 53.35038 -2.28698 228 ft 22 kts 228°
2026-05-06 06:14 53.34965 -2.28829 226 ft 12 kts 226°
2026-05-06 06:15 53.34895 -2.28950 223 ft 18 kts 226°
2026-05-06 06:15 53.34809 -2.29107 218 ft 18 kts 229°
2026-05-06 06:15 53.34752 -2.29223 213 ft 8 kts 231°
2026-05-06 06:15 53.34698 -2.29313 211 ft 7 kts 211°
2026-05-06 06:16 53.34680 -2.29329 211 ft 3 kts 204°
2026-05-06 06:16 53.34655 -2.29340 212 ft 6 kts 191°
2026-05-06 06:16 53.34599 -2.29335 213 ft 9 kts 170°
2026-05-06 06:16 53.34538 -2.29272 213 ft 12 kts 126°
2026-05-06 06:17 53.34553 -2.29193 216 ft 1 kts 50°
2026-05-06 06:17 53.34628 -2.29040 215 ft 46 kts 51°
2026-05-06 06:17 53.34964 -2.28343 233 ft 108 kts 51°
2026-05-06 06:17 53.35525 -2.27179 491 ft 136 kts 50°
2026-05-06 06:18 53.36120 -2.25946 1192 ft 136 kts 51°
2026-05-06 06:18 53.36729 -2.24690 1818 ft 147 kts 52°
2026-05-06 06:18 53.37379 -2.23231 2241 ft 170 kts 63°
2026-05-06 06:18 53.37575 -2.21150 2654 ft 200 kts 98°
2026-05-06 06:19 53.36839 -2.19053 3354 ft 224 kts 137°
2026-05-06 06:19 53.35520 -2.17561 4300 ft 236 kts 147°
2026-05-06 06:19 53.33864 -2.16749 4902 ft 265 kts 179°
2026-05-06 06:19 53.31985 -2.17058 5803 ft 277 kts 188°
2026-05-06 06:20 53.30051 -2.17426 6834 ft 283 kts 187°
2026-05-06 06:20 53.28069 -2.17766 7863 ft 288 kts 187°
2026-05-06 06:20 53.26062 -2.18090 8883 ft 292 kts 187°
2026-05-06 06:20 53.24022 -2.18407 9903 ft 296 kts 187°
2026-05-06 06:21 53.21920 -2.18671 10488 ft 315 kts 181°
2026-05-06 06:21 53.19691 -2.18144 11058 ft 331 kts 167°
2026-05-06 06:21 53.17495 -2.16901 11627 ft 335 kts 159°
2026-05-06 06:21 53.15347 -2.15314 12365 ft 339 kts 156°
2026-05-06 06:22 53.13198 -2.13646 13241 ft 342 kts 156°
2026-05-06 06:22 53.11015 -2.12017 14104 ft 346 kts 158°
2026-05-06 06:22 53.08781 -2.10469 14876 ft 349 kts 160°
2026-05-06 06:22 53.06506 -2.09002 15654 ft 352 kts 161°
2026-05-06 06:23 53.04197 -2.07582 16418 ft 355 kts 162°
2026-05-06 06:23 53.01898 -2.06197 16861 ft 342 kts 162°
2026-05-06 06:23 52.99730 -2.04892 17250 ft 332 kts 162°
2026-05-06 06:23 52.97536 -2.03572 17648 ft 331 kts 162°
2026-05-06 06:24 52.95369 -2.02267 18064 ft 332 kts 162°
2026-05-06 06:24 52.93190 -2.00947 18375 ft 334 kts 162°
2026-05-06 06:24 52.91006 -1.99622 18615 ft 334 kts 162°
2026-05-06 06:24 52.88847 -1.98309 18851 ft 335 kts 162°
2026-05-06 06:25 52.86649 -1.96972 18998 ft 337 kts 162°
2026-05-06 06:25 52.84450 -1.95634 19033 ft 337 kts 162°
2026-05-06 06:25 52.80057 -1.92965 19035 ft 336 kts 162°
2026-05-06 06:26 52.77876 -1.91646 19035 ft 332 kts 162°
2026-05-06 06:26 52.75711 -1.90337 19035 ft 330 kts 162°
2026-05-06 06:26 52.73555 -1.89037 19030 ft 330 kts 162°
2026-05-06 06:26 52.71401 -1.87737 19030 ft 330 kts 162°
2026-05-06 06:27 52.69247 -1.86438 19042 ft 330 kts 162°
2026-05-06 06:27 52.67091 -1.85135 19041 ft 330 kts 162°
2026-05-06 06:27 52.64935 -1.83837 19040 ft 330 kts 162°
2026-05-06 06:27 52.62780 -1.82545 19043 ft 330 kts 162°
2026-05-06 06:28 52.60623 -1.81254 19053 ft 330 kts 162°
2026-05-06 06:28 52.58467 -1.79963 19048 ft 330 kts 162°
2026-05-06 06:28 52.56311 -1.78671 19049 ft 330 kts 162°
2026-05-06 06:28 52.54157 -1.77383 19055 ft 330 kts 162°
2026-05-06 06:29 52.52000 -1.76097 19061 ft 330 kts 162°
2026-05-06 06:29 52.49843 -1.74811 19057 ft 330 kts 162°
2026-05-06 06:29 52.47686 -1.73524 19055 ft 330 kts 162°
2026-05-06 06:29 52.45526 -1.72233 19061 ft 330 kts 162°
2026-05-06 06:30 52.43369 -1.70946 19055 ft 330 kts 162°
2026-05-06 06:30 52.41212 -1.69663 19056 ft 330 kts 162°
2026-05-06 06:30 52.39078 -1.68397 19058 ft 330 kts 162°
2026-05-06 06:30 52.36927 -1.67087 19061 ft 331 kts 159°
2026-05-06 06:31 52.34920 -1.65241 19057 ft 333 kts 146°
2026-05-06 06:31 52.33139 -1.62811 19052 ft 334 kts 140°
2026-05-06 06:31 52.31382 -1.60312 19059 ft 335 kts 141°
2026-05-06 06:31 52.29609 -1.57804 18897 ft 339 kts 141°
2026-05-06 06:32 52.27822 -1.55284 18655 ft 339 kts 141°
2026-05-06 06:32 52.26031 -1.52767 18407 ft 339 kts 141°
2026-05-06 06:32 52.24240 -1.50256 18151 ft 340 kts 141°
2026-05-06 06:32 52.22446 -1.47740 17878 ft 340 kts 141°
2026-05-06 06:33 52.20653 -1.45225 17606 ft 340 kts 141°
2026-05-06 06:33 52.18860 -1.42711 17337 ft 340 kts 140°
2026-05-06 06:33 52.17059 -1.40190 17063 ft 340 kts 141°
2026-05-06 06:33 52.15258 -1.37676 16805 ft 341 kts 141°
2026-05-06 06:34 52.13457 -1.35168 16550 ft 341 kts 140°
2026-05-06 06:34 52.11656 -1.32660 16283 ft 341 kts 140°
2026-05-06 06:34 52.09850 -1.30146 16025 ft 341 kts 140°
2026-05-06 06:34 52.08040 -1.27632 15769 ft 343 kts 140°
2026-05-06 06:35 52.06223 -1.25110 15517 ft 344 kts 140°
2026-05-06 06:35 52.04427 -1.22617 15259 ft 344 kts 140°
2026-05-06 06:35 52.02629 -1.20072 15063 ft 343 kts 136°
2026-05-06 06:35 52.01128 -1.17041 14589 ft 345 kts 125°
2026-05-06 06:36 51.99745 -1.13864 14175 ft 344 kts 124°
2026-05-06 06:36 51.98390 -1.10707 13819 ft 338 kts 124°
2026-05-06 06:36 51.97054 -1.07594 13371 ft 335 kts 124°
2026-05-06 06:36 51.95704 -1.04567 12971 ft 329 kts 126°
2026-05-06 06:37 51.94343 -1.01606 12589 ft 325 kts 126°
2026-05-06 06:37 51.92991 -0.98705 12213 ft 321 kts 126°
2026-05-06 06:37 51.91647 -0.95842 11860 ft 316 kts 126°
2026-05-06 06:37 51.90341 -0.93055 11704 ft 306 kts 126°
2026-05-06 06:38 51.89079 -0.90353 11583 ft 297 kts 126°
2026-05-06 06:38 51.87857 -0.87723 11458 ft 288 kts 126°
2026-05-06 06:38 51.86670 -0.85161 11323 ft 280 kts 125°
2026-05-06 06:38 51.85522 -0.82679 11201 ft 272 kts 126°
2026-05-06 06:39 51.84402 -0.80259 10988 ft 267 kts 125°
2026-05-06 06:39 51.83291 -0.77859 10683 ft 268 kts 125°
2026-05-06 06:39 51.82176 -0.75459 10429 ft 265 kts 126°
2026-05-06 06:39 51.81062 -0.73068 10091 ft 267 kts 125°
2026-05-06 06:40 51.79947 -0.70679 9842 ft 264 kts 125°
2026-05-06 06:40 51.78848 -0.68324 9578 ft 262 kts 126°
2026-05-06 06:40 51.77752 -0.65979 9291 ft 261 kts 125°
2026-05-06 06:40 51.76663 -0.63648 8996 ft 260 kts 126°
2026-05-06 06:41 51.75574 -0.61325 8696 ft 259 kts 126°
2026-05-06 06:41 51.74508 -0.59042 8408 ft 258 kts 125°
2026-05-06 06:41 51.73380 -0.56796 8106 ft 258 kts 134°
2026-05-06 06:41 51.71861 -0.55335 7998 ft 257 kts 163°
2026-05-06 06:42 51.70099 -0.55143 8003 ft 256 kts 194°
2026-05-06 06:42 51.68535 -0.56376 8002 ft 249 kts 225°
2026-05-06 06:42 51.67611 -0.58650 8001 ft 242 kts 257°
2026-05-06 06:42 51.67565 -0.61288 7999 ft 235 kts 288°
2026-05-06 06:43 51.68383 -0.63504 8002 ft 232 kts 317°
2026-05-06 06:43 51.69682 -0.65037 8002 ft 232 kts 331°
2026-05-06 06:43 51.71113 -0.66246 7998 ft 232 kts 338°
2026-05-06 06:43 51.72697 -0.66643 7998 ft 233 kts
2026-05-06 06:44 51.74229 -0.65797 7998 ft 238 kts 32°
2026-05-06 06:44 51.75344 -0.63814 7999 ft 244 kts 60°
2026-05-06 06:44 51.75722 -0.61143 8000 ft 250 kts 91°
2026-05-06 06:44 51.75207 -0.58469 8000 ft 256 kts 122°
2026-05-06 06:45 51.73917 -0.56483 8004 ft 258 kts 147°
2026-05-06 06:45 51.72304 -0.55227 8003 ft 258 kts 160°
2026-05-06 06:45 51.70575 -0.54661 7999 ft 257 kts 183°
2026-05-06 06:45 51.68818 -0.55102 7996 ft 255 kts 203°
2026-05-06 06:46 51.67292 -0.56503 7996 ft 251 kts 219°
2026-05-06 06:46 51.65888 -0.58196 7839 ft 251 kts 221°
2026-05-06 06:46 51.64507 -0.59912 7677 ft 250 kts 221°
2026-05-06 06:46 51.63144 -0.61618 7502 ft 250 kts 221°
2026-05-06 06:47 51.61769 -0.63339 7322 ft 248 kts 222°
2026-05-06 06:47 51.60704 -0.65451 7146 ft 241 kts 246°
2026-05-06 06:47 51.60012 -0.67876 7001 ft 240 kts 251°
2026-05-06 06:47 51.59486 -0.70407 6845 ft 237 kts 259°
2026-05-06 06:48 51.59110 -0.72950 6673 ft 235 kts 261°
2026-05-06 06:48 51.58744 -0.75538 6499 ft 235 kts 261°
2026-05-06 06:48 51.58384 -0.78071 6252 ft 235 kts 261°
2026-05-06 06:48 51.58019 -0.80632 5985 ft 234 kts 261°
2026-05-06 06:49 51.57655 -0.83182 5722 ft 234 kts 261°
2026-05-06 06:49 51.57283 -0.85736 5476 ft 233 kts 261°
2026-05-06 06:49 51.56758 -0.88202 5369 ft 239 kts 242°
2026-05-06 06:49 51.55607 -0.89954 5307 ft 239 kts 210°
2026-05-06 06:50 51.53981 -0.90574 5248 ft 229 kts 184°
2026-05-06 06:50 51.52438 -0.90353 5196 ft 225 kts 158°
2026-05-06 06:50 51.51227 -0.88908 5114 ft 210 kts 124°
2026-05-06 06:50 51.50441 -0.87028 4911 ft 204 kts 117°
2026-05-06 06:51 51.49706 -0.85076 4647 ft 202 kts 116°
2026-05-06 06:51 51.48986 -0.83146 4385 ft 201 kts 116°
2026-05-06 06:51 51.48272 -0.81234 4123 ft 199 kts 116°
2026-05-06 06:51 51.47685 -0.79297 3967 ft 191 kts 99°
2026-05-06 06:52 51.47583 -0.77202 3697 ft 186 kts 83°
2026-05-06 06:52 51.47604 -0.75125 3444 ft 184 kts 83°
2026-05-06 06:52 51.47620 -0.73107 3202 ft 182 kts 84°
2026-05-06 06:52 51.47634 -0.71078 2955 ft 181 kts 84°
2026-05-06 06:53 51.47646 -0.69070 2709 ft 178 kts 84°
2026-05-06 06:53 51.47657 -0.67087 2464 ft 175 kts 84°
2026-05-06 06:53 51.47668 -0.65167 2219 ft 170 kts 84°
2026-05-06 06:53 51.47678 -0.63316 1994 ft 166 kts 84°
2026-05-06 06:54 51.47687 -0.61486 1765 ft 161 kts 84°
2026-05-06 06:54 51.47696 -0.59723 1543 ft 156 kts 84°
2026-05-06 06:54 51.47703 -0.58061 1332 ft 138 kts 83°
2026-05-06 06:54 51.47709 -0.56586 1141 ft 127 kts 84°
2026-05-06 06:55 51.47716 -0.55198 962 ft 123 kts 84°
2026-05-06 06:55 51.47724 -0.53828 788 ft 124 kts 83°
2026-05-06 06:55 51.47730 -0.52438 616 ft 124 kts 83°
2026-05-06 06:55 51.47737 -0.51037 453 ft 127 kts 84°
2026-05-06 06:56 51.47743 -0.49645 274 ft 126 kts 86°
2026-05-06 06:56 51.47749 -0.48233 114 ft 126 kts 85°
2026-05-06 06:56 51.47757 -0.46966 90 ft 95 kts 90°
2026-05-06 06:56 51.47759 -0.46302 88 ft 17 kts 90°
2026-05-06 06:57 51.47698 -0.46136 88 ft 21 kts 144°
2026-05-06 06:57 51.47612 -0.46065 87 ft 11 kts 189°
2026-05-06 06:57 51.47592 -0.46139 87 ft 12 kts 273°
2026-05-06 06:57 51.47594 -0.46290 86 ft 15 kts 269°
2026-05-06 06:58 51.47593 -0.46481 86 ft 19 kts 270°
2026-05-06 06:58 51.47591 -0.46713 86 ft 22 kts 268°
2026-05-06 06:58 51.47582 -0.46982 86 ft 26 kts 269°
2026-05-06 06:58 51.47580 -0.47292 89 ft 27 kts 270°
2026-05-06 06:59 51.47580 -0.47489 88 ft 18 kts 269°
2026-05-06 06:59 51.47579 -0.47707 86 ft 21 kts 269°
2026-05-06 06:59 51.47579 -0.47966 86 ft 24 kts 270°
2026-05-06 06:59 51.47579 -0.48213 86 ft 20 kts 269°
2026-05-06 07:00 51.47578 -0.48398 86 ft 11 kts 270°
2026-05-06 07:00 51.47540 -0.48472 89 ft 9 kts 193°
2026-05-06 07:00 51.47491 -0.48508 88 ft 8 kts 246°
2026-05-06 07:00 51.47487 -0.48600 88 ft 8 kts 269°
2026-05-06 07:01 51.47487 -0.48693 87 ft 8 kts 270°
2026-05-06 07:01 51.47486 -0.48787 86 ft 8 kts 269°
2026-05-06 07:01 51.47483 -0.48877 90 ft 6 kts 248°
2026-05-06 07:01 51.47449 -0.48891 88 ft 5 kts 182°
2026-05-06 07:02 51.47420 -0.48891 86 ft 3 kts 179°
2026-05-06 07:02 51.47407 -0.48891 86 ft 1 kts 179°
2026-05-06 07:02 51.47403 -0.48891 86 ft 0 kts 179°